Location: Arrington
(35.8681°N, 86.7092°W)
Time: 19:54:13
(UTC+00:00)

Cosmos 1725 Rocket - Pass Details

Date: 23 November 2019
Orbit: 962 x 990 km, 82.9° (Epoch: 05 December)

Event Time Altitude Azimuth Distance (km) Brightness Sun altitude
Rises 10:16:29 0° 177° (S) 3,662 7.1 -26.9°
Reaches altitude 10° 10:18:59 10° 175° (S) 2,722 6.5 -26.4°
Maximum altitude 10:25:10 68° 93° (E) 1,055 4.3 -25.2°
Drops below altitude 10° 10:31:26 10° 12° (NNE) 2,753 6.4 -23.9°
Sets 10:33:58 0° 10° (N) 3,707 7.1 -23.4°
